Data No, UTC Date,UTC Time,Latitude,Longitude,Course(deg),Temp(degC),Sal(psu),pH
739,2019/2/14,12:18,35-35.59N,139-47.18E,182,9.811,31.2893,8.16
740,2019/2/14,12:19,35-35.51N,139-47.20E,166,9.8,31.2733,8.16
741,2019/2/14,12:20,35-35.43N,139-47.25E,148,9.727,31.2476,8.15
742,2019/2/14,12:21,35-35.36N,139-47.31E,144,9.725,31.2287,8.15
743,2019/2/14,12:22,35-35.27N,139-47.39E,142,9.673,31.2157,8.15
744,2019/2/14,12:23,35-35.16N,139-47.50E,142,9.566,31.1955,8.15
745,2019/2/14,12:24,35-35.03N,139-47.61E,143,9.401,31.241,8.16
746,2019/2/14,12:25,35-34.90N,139-47.73E,142,9.383,31.307,8.16
747,2019/2/14,12:26,35-34.77N,139-47.87E,137,9.412,31.3291,8.17
748,2019/2/14,12:27,35-34.64N,139-48.05E,131,9.384,31.3299,8.18
749,2019/2/14,12:28,35-34.49N,139-48.27E,130,9.178,31.3169,8.19
750,2019/2/14,12:29,35-34.32N,139-48.50E,130,9.196,31.2445,8.19
751,2019/2/14,12:30,35-34.16N,139-48.74E,130,9.162,31.1046,8.2
752,2019/2/14,12:31,35-33.99N,139-48.98E,130,9.055,31.0877,8.21
753,2019/2/14,12:32,35-33.82N,139-49.23E,130,9.088,31.0579,8.21
754,2019/2/14,12:33,35-33.64N,139-49.48E,130,9.078,31.0018,8.21
755,2019/2/14,12:34,35-33.48N,139-49.73E,130,9.08,30.8471,8.21
756,2019/2/14,12:35,35-33.31N,139-49.98E,130,9.03,30.7586,8.21
757,2019/2/14,12:36,35-33.13N,139-50.24E,130,9.012,30.6154,8.22
758,2019/2/14,12:37,35-32.95N,139-50.49E,133,9.001,30.4946,8.22
759,2019/2/14,12:38,35-32.71N,139-50.67E,156,8.926,30.5846,8.22
760,2019/2/14,12:39,35-32.43N,139-50.73E,174,8.897,30.3736,8.22
761,2019/2/14,12:40,35-32.15N,139-50.76E,174,9.115,30.319,8.23
762,2019/2/14,12:41,35-31.85N,139-50.79E,174,9.19,31.0587,8.22
763,2019/2/14,12:42,35-31.55N,139-50.83E,174,9.195,31.3997,8.23
764,2019/2/14,12:43,35-31.24N,139-50.86E,175,9.197,31.5251,8.23
765,2019/2/14,12:44,35-30.93N,139-50.89E,175,9.17,31.6304,8.22
766,2019/2/14,12:45,35-30.62N,139-50.92E,175,9.167,31.6358,8.24
767,2019/2/14,12:46,35-30.30N,139-50.93E,180,9.163,31.6491,8.23
768,2019/2/14,12:47,35-29.99N,139-50.85E,198,9.158,31.6707,8.23
769,2019/2/14,12:48,35-29.72N,139-50.66E,215,9.14,31.7221,8.23
770,2019/2/14,12:49,35-29.50N,139-50.40E,224,9.115,31.7631,8.24
771,2019/2/14,12:50,35-29.27N,139-50.13E,225,9.096,31.7365,8.24
772,2019/2/14,12:51,35-29.05N,139-49.86E,224,9.174,31.6978,8.23
773,2019/2/14,12:52,35-28.82N,139-49.58E,224,9.134,31.7982,8.23
774,2019/2/14,12:53,35-28.60N,139-49.31E,224,9.081,31.8395,8.23
775,2019/2/14,12:54,35-28.38N,139-49.01E,229,8.988,31.7683,8.24
776,2019/2/14,12:55,35-28.18N,139-48.70E,231,8.987,31.6141,8.24
777,2019/2/14,12:56,35-27.98N,139-48.39E,232,8.968,31.4625,8.24
778,2019/2/14,12:57,35-27.79N,139-48.08E,232,9.013,31.5263,8.24
779,2019/2/14,12:58,35-27.59N,139-47.77E,233,9.023,31.6597,8.24
780,2019/2/14,12:59,35-27.40N,139-47.45E,233,9.069,31.6773,8.24
781,2019/2/14,13:00,35-27.20N,139-47.13E,233,9.124,31.6914,8.24
782,2019/2/14,13:01,35-27.01N,139-46.81E,232,9.126,31.8651,8.24
783,2019/2/14,13:02,35-26.82N,139-46.50E,232,9.203,31.9398,8.24
784,2019/2/14,13:03,35-26.62N,139-46.19E,232,9.218,32.1161,8.24
785,2019/2/14,13:04,35-26.43N,139-45.88E,233,9.345,32.1816,8.24
786,2019/2/14,13:05,35-26.24N,139-45.57E,233,9.418,32.3314,8.24
787,2019/2/14,13:06,35-26.05N,139-45.26E,232,9.413,32.441,8.24
788,2019/2/14,13:07,35-25.86N,139-44.96E,233,9.416,32.4691,8.24
789,2019/2/14,13:08,35-25.67N,139-44.65E,233,9.445,32.4781,8.24
790,2019/2/14,13:09,35-25.48N,139-44.34E,233,9.437,32.4948,8.24
791,2019/2/14,13:10,35-25.29N,139-44.03E,233,9.475,32.4997,8.23
792,2019/2/14,13:11,35-25.11N,139-43.72E,233,9.482,32.5092,8.24
793,2019/2/14,13:12,35-24.91N,139-43.43E,224,9.469,32.5176,8.24
794,2019/2/14,13:13,35-24.65N,139-43.24E,208,9.448,32.5139,8.24
795,2019/2/14,13:14,35-24.38N,139-43.07E,207,9.464,32.5101,8.24
796,2019/2/14,13:15,35-24.10N,139-42.89E,207,9.379,32.5038,8.24
797,2019/2/14,13:16,35-23.82N,139-42.71E,207,9.357,32.4827,8.25
798,2019/2/14,13:17,35-23.55N,139-42.54E,206,9.426,32.459,8.24
799,2019/2/14,13:18,35-23.26N,139-42.38E,201,9.524,32.4749,8.24
800,2019/2/14,13:19,35-22.97N,139-42.34E,180,9.679,32.5041,8.24
801,2019/2/14,13:20,35-22.66N,139-42.35E,178,9.657,32.5838,8.23
802,2019/2/14,13:21,35-22.34N,139-42.36E,178,9.671,32.6001,8.23
803,2019/2/14,13:22,35-22.03N,139-42.37E,178,9.615,32.607,8.22
804,2019/2/14,13:23,35-21.72N,139-42.37E,178,9.566,32.6103,8.21
805,2019/2/14,13:24,35-21.40N,139-42.39E,178,9.665,32.577,8.23
806,2019/2/14,13:25,35-21.08N,139-42.40E,178,9.728,32.5744,8.23
807,2019/2/14,13:26,35-20.78N,139-42.41E,178,9.783,32.6044,8.22
808,2019/2/14,13:27,35-20.50N,139-42.41E,178,9.859,32.6297,8.23
809,2019/2/14,13:28,35-20.23N,139-42.42E,179,9.869,32.6563,8.22
810,2019/2/14,13:29,35-20.00N,139-42.47E,165,10.055,32.6765,8.22
811,2019/2/14,13:30,35-19.80N,139-42.59E,148,10.127,32.7226,8.21
812,2019/2/14,13:31,35-19.63N,139-42.73E,146,10.176,32.7601,8.21
813,2019/2/14,13:32,35-19.45N,139-42.88E,146,10.206,32.7896,8.21
814,2019/2/14,13:33,35-19.28N,139-43.02E,145,10.259,32.8108,8.21
815,2019/2/14,13:34,35-19.10N,139-43.17E,145,10.306,32.8318,8.21
816,2019/2/14,13:35,35-18.92N,139-43.32E,146,10.351,32.8605,8.21
817,2019/2/14,13:36,35-18.74N,139-43.47E,144,10.476,32.8778,8.21
818,2019/2/14,13:37,35-18.57N,139-43.62E,145,10.602,32.9075,8.2
819,2019/2/14,13:38,35-18.39N,139-43.78E,145,10.734,32.9535,8.19
820,2019/2/14,13:39,35-18.20N,139-43.93E,146,11.03,32.9959,8.2
821,2019/2/14,13:40,35-18.01N,139-44.08E,146,11.069,33.0842,8.19
822,2019/2/14,13:41,35-17.83N,139-44.24E,145,11.065,33.1439,8.19
823,2019/2/14,13:42,35-17.65N,139-44.39E,145,11.523,33.1671,8.18
824,2019/2/14,13:43,35-17.47N,139-44.54E,146,12.031,33.203,8.18
825,2019/2/14,13:44,35-17.28N,139-44.68E,146,12.21,33.4106,8.18
826,2019/2/14,13:45,35-17.10N,139-44.83E,146,11.957,33.51,8.18
827,2019/2/14,13:46,35-16.92N,139-44.98E,146,12.012,33.5104,8.17
828,2019/2/14,13:47,35-16.73N,139-45.13E,146,11.756,33.5038,8.17
829,2019/2/14,13:48,35-16.55N,139-45.28E,146,11.635,33.4793,8.16
830,2019/2/14,13:49,35-16.37N,139-45.43E,146,11.492,33.4205,8.16
831,2019/2/14,13:50,35-16.19N,139-45.58E,146,11.626,33.3696,8.17
832,2019/2/14,13:51,35-16.01N,139-45.73E,145,11.729,33.355,8.17
833,2019/2/14,13:52,35-15.82N,139-45.88E,146,11.878,33.4017,8.17
834,2019/2/14,13:53,35-15.64N,139-46.03E,146,11.877,33.4375,8.17
835,2019/2/14,13:54,35-15.44N,139-46.15E,157,11.915,33.4576,8.18
836,2019/2/14,13:55,35-15.23N,139-46.20E,172,11.759,33.456,8.17
837,2019/2/14,13:56,35-15.01N,139-46.22E,177,11.644,33.4518,8.17
838,2019/2/14,13:57,35-14.78N,139-46.23E,176,11.869,33.4036,8.17
839,2019/2/14,13:58,35-14.56N,139-46.25E,176,12.453,33.4146,8.17
840,2019/2/14,13:59,35-14.33N,139-46.27E,177,13.08,33.5142,8.18
841,2019/2/14,14:00,35-14.11N,139-46.28E,176,13.249,33.6886,8.17
842,2019/2/14,14:01,35-13.89N,139-46.30E,176,15.178,33.7787,8.16
843,2019/2/14,14:02,35-13.67N,139-46.31E,176,15.75,34.0213,8.16
844,2019/2/14,14:03,35-13.44N,139-46.32E,181,15.917,34.3277,8.15
845,2019/2/14,14:04,35-13.22N,139-46.30E,186,15.968,34.46,8.15
846,2019/2/14,14:05,35-13.00N,139-46.26E,189,16.031,34.5134,8.13
847,2019/2/14,14:06,35-12.78N,139-46.22E,190,16.028,34.5254,8.13
848,2019/2/14,14:07,35-12.53N,139-46.16E,190,16.056,34.5347,8.13
849,2019/2/14,14:08,35-12.26N,139-46.10E,190,16.077,34.5388,8.13
850,2019/2/14,14:09,35-11.98N,139-46.03E,190,16.087,34.5427,8.13
851,2019/2/14,14:10,35-11.70N,139-45.96E,192,16.108,34.543,8.13
852,2019/2/14,14:11,35-11.41N,139-45.87E,193,16.144,34.5454,8.12
853,2019/2/14,14:12,35-11.12N,139-45.78E,194,16.149,34.5498,8.12
854,2019/2/14,14:13,35-10.84N,139-45.69E,195,16.159,34.5551,8.12
855,2019/2/14,14:14,35-10.55N,139-45.59E,195,16.158,34.5543,8.12
856,2019/2/14,14:15,35-10.26N,139-45.48E,198,16.154,34.5536,8.13
857,2019/2/14,14:16,35-09.98N,139-45.36E,199,16.151,34.5551,8.12
858,2019/2/14,14:17,35-09.70N,139-45.24E,199,16.162,34.5578,8.12
859,2019/2/14,14:18,35-09.42N,139-45.11E,201,16.137,34.5601,8.12
860,2019/2/14,14:19,35-09.13N,139-44.96E,203,16.119,34.5615,8.11
861,2019/2/14,14:20,35-08.86N,139-44.81E,204,16.108,34.5605,8.11
862,2019/2/14,14:21,35-08.59N,139-44.66E,204,16.106,34.5605,8.11
863,2019/2/14,14:22,35-08.32N,139-44.51E,204,16.089,34.561,8.12
864,2019/2/14,14:23,35-08.04N,139-44.36E,203,16.051,34.5617,8.13
865,2019/2/14,14:24,35-07.76N,139-44.21E,203,15.998,34.559,8.12
866,2019/2/14,14:25,35-07.49N,139-44.06E,203,15.93,34.5528,8.12
867,2019/2/14,14:26,35-07.21N,139-43.92E,201,16.006,34.5454,8.11
868,2019/2/14,14:27,35-06.93N,139-43.81E,197,16.078,34.5435,8.11
869,2019/2/14,14:28,35-06.64N,139-43.71E,195,16.13,34.5557,8.11
870,2019/2/14,14:29,35-06.35N,139-43.61E,195,16.116,34.5577,8.12
871,2019/2/14,14:30,35-06.07N,139-43.52E,195,16.076,34.5585,8.11
872,2019/2/14,14:31,35-05.76N,139-43.42E,195,16.024,34.5584,8.13
873,2019/2/14,14:32,35-05.49N,139-43.33E,192,16.026,34.5573,8.12
874,2019/2/14,14:33,35-05.20N,139-43.26E,190,15.947,34.5569,8.13
875,2019/2/14,14:34,35-04.90N,139-43.20E,189,15.8,34.5538,8.11
876,2019/2/14,14:35,35-04.59N,139-43.14E,189,15.79,34.5395,8.12
877,2019/2/14,14:36,35-04.31N,139-43.08E,189,15.885,34.5161,8.1
878,2019/2/14,14:37,35-04.01N,139-43.02E,189,15.966,34.5235,8.11
879,2019/2/14,14:38,35-03.72N,139-42.96E,189,15.994,34.5383,8.1
880,2019/2/14,14:39,35-03.42N,139-42.91E,189,16.003,34.5445,8.1
881,2019/2/14,14:40,35-03.12N,139-42.85E,188,16.028,34.5419,8.12
882,2019/2/14,14:41,35-02.83N,139-42.80E,188,16.069,34.5356,8.11
883,2019/2/14,14:42,35-02.53N,139-42.75E,187,16.089,34.5339,8.1
884,2019/2/14,14:43,35-02.24N,139-42.71E,186,16.271,34.5337,8.1
885,2019/2/14,14:44,35-01.94N,139-42.66E,187,16.518,34.5414,8.08
886,2019/2/14,14:45,35-01.65N,139-42.62E,186,16.644,34.5593,8.1
887,2019/2/14,14:46,35-01.34N,139-42.58E,186,16.857,34.5699,8.08
888,2019/2/14,14:47,35-01.04N,139-42.54E,185,16.993,34.5781,8.1
889,2019/2/14,14:48,35-00.74N,139-42.50E,186,17.121,34.5822,8.11
890,2019/2/14,14:49,35-00.44N,139-42.46E,185,17.206,34.586,8.12
891,2019/2/14,14:50,35-00.14N,139-42.44E,183,17.258,34.5904,8.13
892,2019/2/14,14:51,34-59.83N,139-42.42E,181,17.287,34.5931,8.12
893,2019/2/14,14:52,34-59.52N,139-42.42E,180,17.27,34.5952,8.13
894,2019/2/14,14:53,34-59.22N,139-42.42E,180,17.261,34.5949,8.13
895,2019/2/14,14:54,34-58.91N,139-42.41E,180,17.27,34.5942,8.12
896,2019/2/14,14:55,34-58.61N,139-42.41E,180,17.26,34.5928,8.12
897,2019/2/14,14:56,34-58.30N,139-42.41E,179,17.228,34.5915,8.11
898,2019/2/14,14:57,34-57.99N,139-42.42E,177,17.23,34.5906,8.12
899,2019/2/14,14:58,34-57.68N,139-42.44E,176,17.266,34.5872,8.12
900,2019/2/14,14:59,34-57.36N,139-42.46E,177,17.254,34.588,8.12
901,2019/2/14,15:00,34-57.05N,139-42.49E,175,17.226,34.5898,8.12
902,2019/2/14,15:01,34-56.73N,139-42.53E,172,17.247,34.5874,8.12
903,2019/2/14,15:02,34-56.41N,139-42.58E,172,17.248,34.5839,8.11
904,2019/2/14,15:03,34-56.10N,139-42.65E,169,17.227,34.5819,8.12
905,2019/2/14,15:04,34-55.80N,139-42.75E,164,17.215,34.5813,8.12
906,2019/2/14,15:05,34-55.50N,139-42.86E,160,17.178,34.5821,8.12
907,2019/2/14,15:06,34-55.21N,139-43.01E,155,17.16,34.5833,8.12
908,2019/2/14,15:07,34-54.94N,139-43.19E,150,17.194,34.5826,8.11
909,2019/2/14,15:08,34-54.66N,139-43.39E,148,17.213,34.5828,8.12
910,2019/2/14,15:09,34-54.39N,139-43.59E,149,17.227,34.5849,8.11
911,2019/2/14,15:10,34-54.11N,139-43.79E,150,17.231,34.5864,8.11
912,2019/2/14,15:11,34-53.82N,139-43.99E,150,17.249,34.5871,8.11
913,2019/2/14,15:12,34-53.55N,139-44.19E,147,17.259,34.5881,8.11
914,2019/2/14,15:13,34-53.28N,139-44.41E,145,17.288,34.5904,8.11
915,2019/2/14,15:14,34-53.00N,139-44.64E,146,17.297,34.5924,8.1
916,2019/2/14,15:15,34-52.74N,139-44.86E,144,17.3,34.5938,8.1
917,2019/2/14,15:16,34-52.48N,139-45.09E,144,17.337,34.5948,8.11
918,2019/2/14,15:17,34-52.21N,139-45.32E,143,17.353,34.5971,8.11
919,2019/2/14,15:18,34-51.95N,139-45.59E,139,17.281,34.6001,8.12
920,2019/2/14,15:19,34-51.70N,139-45.87E,136,17.223,34.5981,8.12
921,2019/2/14,15:20,34-51.46N,139-46.15E,135,17.166,34.5898,8.12
922,2019/2/14,15:21,34-51.29N,139-46.47E,116,16.98,34.588,8.1
923,2019/2/14,15:22,34-51.17N,139-46.82E,110,16.962,34.5806,8.11
924,2019/2/14,15:23,34-51.08N,139-47.17E,104,17.163,34.5733,8.11
925,2019/2/14,15:24,34-51.02N,139-47.53E,101,17.152,34.5814,8.11
926,2019/2/14,15:25,34-50.96N,139-47.91E,100,16.906,34.5904,8.11
927,2019/2/14,15:26,34-50.91N,139-48.27E,97,16.803,34.5879,8.12
928,2019/2/14,15:27,34-50.90N,139-48.63E,91,16.64,34.577,8.11
929,2019/2/14,15:28,34-50.90N,139-48.98E,89,16.607,34.5744,8.11
930,2019/2/14,15:29,34-50.90N,139-49.34E,88,16.486,34.5678,8.11
931,2019/2/14,15:30,34-50.92N,139-49.70E,87,16.33,34.566,8.11
932,2019/2/14,15:31,34-50.93N,139-50.05E,88,16.065,34.558,8.1
933,2019/2/14,15:32,34-50.93N,139-50.41E,88,16.015,34.5474,8.11
934,2019/2/14,15:33,34-50.96N,139-50.75E,84,15.977,34.5363,8.1
935,2019/2/14,15:34,34-50.99N,139-51.09E,83,15.945,34.5313,8.1
936,2019/2/14,15:35,34-51.02N,139-51.43E,83,15.92,34.5291,8.1
937,2019/2/14,15:36,34-51.06N,139-51.77E,82,15.884,34.5306,8.1
938,2019/2/14,15:37,34-51.09N,139-52.11E,81,15.816,34.5382,8.1
939,2019/2/14,15:38,34-51.15N,139-52.43E,78,15.742,34.531,8.1
940,2019/2/14,15:39,34-51.20N,139-52.76E,78,15.703,34.5205,8.1
941,2019/2/14,15:40,34-51.26N,139-53.08E,77,15.691,34.5139,8.1
942,2019/2/14,15:41,34-51.32N,139-53.40E,77,15.697,34.5126,8.09
943,2019/2/14,15:42,34-51.38N,139-53.73E,77,15.717,34.5144,8.09
944,2019/2/14,15:43,34-51.45N,139-54.05E,74,15.693,34.5207,8.08
945,2019/2/14,15:44,34-51.53N,139-54.37E,72,15.647,34.529,8.08
946,2019/2/14,15:45,34-51.61N,139-54.68E,71,15.541,34.5367,8.09
947,2019/2/14,15:46,34-51.71N,139-54.99E,68,15.485,34.5352,8.09
948,2019/2/14,15:47,34-51.81N,139-55.29E,67,15.463,34.5306,8.09
949,2019/2/14,15:48,34-51.91N,139-55.59E,67,15.455,34.5276,8.07
950,2019/2/14,15:49,34-52.02N,139-55.90E,67,15.448,34.5278,8.08
951,2019/2/14,15:50,34-52.13N,139-56.21E,67,15.459,34.5287,8.07
952,2019/2/14,15:51,34-52.23N,139-56.50E,66,15.455,34.5295,8.08
953,2019/2/14,15:52,34-52.34N,139-56.81E,66,15.46,34.5311,8.08
954,2019/2/14,15:53,34-52.45N,139-57.11E,67,15.461,34.5337,8.08
955,2019/2/14,15:54,34-52.55N,139-57.43E,67,15.458,34.5348,8.08
956,2019/2/14,15:55,34-52.66N,139-57.74E,67,15.461,34.5355,8.08
957,2019/2/14,15:56,34-52.76N,139-58.04E,67,15.477,34.5351,8.09
958,2019/2/14,15:57,34-52.87N,139-58.35E,67,15.467,34.5372,8.09
959,2019/2/14,15:58,34-52.98N,139-58.67E,67,15.446,34.5378,8.08
960,2019/2/14,15:59,34-53.09N,139-58.98E,65,15.423,34.5353,8.09
961,2019/2/14,16:00,34-53.21N,139-59.28E,63,15.397,34.532,8.08
962,2019/2/14,16:01,34-53.34N,139-59.57E,62,15.405,34.5304,8.09
963,2019/2/14,16:02,34-53.46N,139-59.87E,63,15.379,34.5295,8.08
964,2019/2/14,16:03,34-53.59N,140-00.17E,63,15.371,34.5319,8.09
965,2019/2/14,16:04,34-53.71N,140-00.47E,63,15.372,34.5325,8.08
966,2019/2/14,16:05,34-53.83N,140-00.77E,63,15.373,34.527,8.1
967,2019/2/14,16:06,34-53.95N,140-01.05E,62,15.481,34.5255,8.08
968,2019/2/14,16:07,34-54.08N,140-01.35E,62,15.582,34.5257,8.09
969,2019/2/14,16:08,34-54.21N,140-01.64E,62,15.657,34.5283,8.09
970,2019/2/14,16:09,34-54.33N,140-01.93E,62,15.731,34.5304,8.09
971,2019/2/14,16:10,34-54.45N,140-02.22E,62,15.79,34.5335,8.09
972,2019/2/14,16:11,34-54.57N,140-02.51E,63,15.816,34.5365,8.08
973,2019/2/14,16:12,34-54.70N,140-02.80E,62,15.848,34.5366,8.08
974,2019/2/14,16:13,34-54.82N,140-03.09E,63,15.873,34.5357,8.1
975,2019/2/14,16:14,34-54.94N,140-03.39E,63,15.896,34.5362,8.09
976,2019/2/14,16:15,34-55.07N,140-03.68E,63,15.917,34.5362,8.09
977,2019/2/14,16:16,34-55.19N,140-03.97E,62,15.93,34.5355,8.1
978,2019/2/14,16:17,34-55.31N,140-04.26E,63,15.919,34.5357,8.1
979,2019/2/14,16:18,34-55.43N,140-04.56E,62,15.901,34.5319,8.09
980,2019/2/14,16:19,34-55.56N,140-04.86E,62,15.872,34.5308,8.09
981,2019/2/14,16:20,34-55.68N,140-05.15E,63,15.847,34.5355,8.09
982,2019/2/14,16:21,34-55.81N,140-05.46E,63,15.792,34.5344,8.1
983,2019/2/14,16:22,34-55.94N,140-05.77E,63,15.726,34.531,8.09
984,2019/2/14,16:23,34-56.06N,140-06.07E,62,15.643,34.5277,8.1
985,2019/2/14,16:24,34-56.19N,140-06.37E,62,15.593,34.5234,8.1
986,2019/2/14,16:25,34-56.32N,140-06.68E,63,15.582,34.5208,8.08
987,2019/2/14,16:26,34-56.45N,140-06.99E,63,15.529,34.5205,8.08
988,2019/2/14,16:27,34-56.58N,140-07.31E,63,15.451,34.5195,8.08
989,2019/2/14,16:28,34-56.72N,140-07.61E,61,15.324,34.5156,8.08
990,2019/2/14,16:29,34-56.86N,140-07.91E,60,15.339,34.516,8.07
991,2019/2/14,16:30,34-57.00N,140-08.22E,60,15.49,34.5128,8.07
992,2019/2/14,16:31,34-57.13N,140-08.52E,61,15.581,34.5161,8.08
993,2019/2/14,16:32,34-57.27N,140-08.83E,61,15.588,34.5234,8.07
994,2019/2/14,16:33,34-57.40N,140-09.14E,61,15.627,34.5226,8.08
995,2019/2/14,16:34,34-57.54N,140-09.44E,60,15.569,34.5282,8.09
996,2019/2/14,16:35,34-57.68N,140-09.73E,60,15.496,34.5325,8.08
997,2019/2/14,16:36,34-57.82N,140-10.03E,60,15.488,34.5276,8.09
998,2019/2/14,16:37,34-57.96N,140-10.34E,60,15.496,34.5227,8.1
999,2019/2/14,16:38,34-58.10N,140-10.64E,60,15.563,34.5217,8.08
1000,2019/2/14,16:39,34-58.24N,140-10.94E,60,15.685,34.5213,8.08
1001,2019/2/14,16:40,34-58.38N,140-11.24E,60,15.783,34.533,8.09
1002,2019/2/14,16:41,34-58.52N,140-11.54E,60,15.846,34.5422,8.09
1003,2019/2/14,16:42,34-58.66N,140-11.84E,60,15.874,34.5495,8.1
1004,2019/2/14,16:43,34-58.81N,140-12.16E,60,15.908,34.5521,8.11
1005,2019/2/14,16:44,34-58.95N,140-12.45E,60,15.933,34.5521,8.1
1006,2019/2/14,16:45,34-59.09N,140-12.76E,60,15.952,34.5538,8.1
1007,2019/2/14,16:46,34-59.24N,140-13.06E,60,15.989,34.555,8.11
1008,2019/2/14,16:47,34-59.38N,140-13.37E,60,16.012,34.556,8.1
1009,2019/2/14,16:48,34-59.53N,140-13.68E,60,16.008,34.5567,8.1
1010,2019/2/14,16:49,34-59.66N,140-13.98E,61,15.949,34.5553,8.11
1011,2019/2/14,16:50,34-59.80N,140-14.29E,60,15.976,34.551,8.11
1012,2019/2/14,16:51,34-59.95N,140-14.60E,60,16.025,34.545,8.1
1013,2019/2/14,16:52,35-00.09N,140-14.90E,60,16.04,34.5417,8.1
1014,2019/2/14,16:53,35-00.24N,140-15.22E,60,16.063,34.5379,8.11
1015,2019/2/14,16:54,35-00.38N,140-15.52E,59,16.08,34.5363,8.11
1016,2019/2/14,16:55,35-00.53N,140-15.83E,60,16.104,34.5359,8.1
1017,2019/2/14,16:56,35-00.68N,140-16.13E,59,16.125,34.5368,8.1
1018,2019/2/14,16:57,35-00.82N,140-16.43E,60,16.142,34.5377,8.1
1019,2019/2/14,16:58,35-00.96N,140-16.74E,59,16.158,34.5393,8.1
1020,2019/2/14,16:59,35-01.11N,140-17.04E,59,16.175,34.5415,8.1
1021,2019/2/14,17:00,35-01.26N,140-17.35E,59,16.193,34.5453,8.1
1022,2019/2/14,17:01,35-01.41N,140-17.66E,59,16.164,34.5495,8.1
1023,2019/2/14,17:02,35-01.56N,140-17.98E,59,16.12,34.5496,8.11
1024,2019/2/14,17:03,35-01.72N,140-18.28E,58,16.134,34.5458,8.11
1025,2019/2/14,17:04,35-01.87N,140-18.59E,58,16.175,34.5452,8.11
1026,2019/2/14,17:05,35-02.03N,140-18.90E,58,16.249,34.5526,8.11
1027,2019/2/14,17:06,35-02.19N,140-19.22E,58,16.328,34.5556,8.11
1028,2019/2/14,17:07,35-02.34N,140-19.53E,58,16.427,34.5564,8.11
1029,2019/2/14,17:08,35-02.50N,140-19.85E,58,16.457,34.5608,8.11
1030,2019/2/14,17:09,35-02.66N,140-20.17E,58,16.487,34.5636,8.1
1031,2019/2/14,17:10,35-02.82N,140-20.49E,58,16.497,34.5654,8.11
1032,2019/2/14,17:11,35-02.98N,140-20.80E,58,16.513,34.5665,8.11
1033,2019/2/14,17:12,35-03.16N,140-21.12E,55,16.475,34.5675,8.11
1034,2019/2/14,17:13,35-03.33N,140-21.41E,54,16.464,34.5679,8.1
1035,2019/2/14,17:14,35-03.51N,140-21.71E,54,16.415,34.5676,8.12
1036,2019/2/14,17:15,35-03.69N,140-22.02E,54,16.374,34.5665,8.11
1037,2019/2/14,17:16,35-03.86N,140-22.32E,54,16.373,34.5621,8.11
1038,2019/2/14,17:17,35-04.03N,140-22.60E,54,16.328,34.5577,8.11
1039,2019/2/14,17:18,35-04.20N,140-22.90E,55,16.316,34.5545,8.11
1040,2019/2/14,17:19,35-04.38N,140-23.20E,54,16.292,34.549,8.11
1041,2019/2/14,17:20,35-04.56N,140-23.50E,55,16.259,34.5461,8.11
1042,2019/2/14,17:21,35-04.73N,140-23.80E,55,16.235,34.5429,8.1
1043,2019/2/14,17:22,35-04.91N,140-24.12E,55,16.224,34.5411,8.11
1044,2019/2/14,17:23,35-05.07N,140-24.41E,55,16.217,34.54,8.1
1045,2019/2/14,17:24,35-05.24N,140-24.72E,55,16.202,34.5397,8.11
1046,2019/2/14,17:25,35-05.42N,140-25.02E,55,16.178,34.5393,8.1
1047,2019/2/14,17:26,35-05.59N,140-25.34E,55,16.165,34.5368,8.11
1048,2019/2/14,17:27,35-05.76N,140-25.64E,56,16.156,34.5338,8.1
1049,2019/2/14,17:28,35-05.93N,140-25.95E,56,16.166,34.5319,8.1
1050,2019/2/14,17:29,35-06.10N,140-26.25E,56,16.173,34.5316,8.1
1051,2019/2/14,17:30,35-06.27N,140-26.56E,56,16.189,34.5319,8.1
1052,2019/2/14,17:31,35-06.45N,140-26.88E,54,16.162,34.5329,8.1
1053,2019/2/14,17:32,35-06.63N,140-27.18E,53,16.138,34.533,8.1
1054,2019/2/14,17:33,35-06.81N,140-27.49E,54,16.139,34.5299,8.1
1055,2019/2/14,17:34,35-06.99N,140-27.79E,53,16.145,34.5266,8.1
1056,2019/2/14,17:35,35-07.17N,140-28.09E,53,16.136,34.5251,8.1
1057,2019/2/14,17:36,35-07.36N,140-28.41E,54,16.134,34.5234,8.1
1058,2019/2/14,17:37,35-07.55N,140-28.70E,51,16.157,34.5214,8.09
1059,2019/2/14,17:38,35-07.75N,140-28.98E,46,16.211,34.5213,8.1
1060,2019/2/14,17:39,35-07.97N,140-29.23E,44,16.281,34.5262,8.1
1061,2019/2/14,17:40,35-08.19N,140-29.49E,43,16.331,34.5333,8.1
1062,2019/2/14,17:41,35-08.41N,140-29.74E,43,16.298,34.5406,8.08
1063,2019/2/14,17:42,35-08.63N,140-29.98E,40,16.237,34.5431,8.1
1064,2019/2/14,17:43,35-08.86N,140-30.21E,39,16.155,34.54,8.1
1065,2019/2/14,17:44,35-09.10N,140-30.45E,39,16.19,34.5353,8.1
1066,2019/2/14,17:45,35-09.32N,140-30.67E,39,16.191,34.5339,8.1
1067,2019/2/14,17:46,35-09.56N,140-30.89E,38,16.047,34.5376,8.1
1068,2019/2/14,17:47,35-09.79N,140-31.12E,38,15.861,34.544,8.1
1069,2019/2/14,17:48,35-10.02N,140-31.34E,38,15.717,34.5397,8.1
1070,2019/2/14,17:49,35-10.26N,140-31.57E,37,15.57,34.534,8.1
1071,2019/2/14,17:50,35-10.49N,140-31.78E,37,15.491,34.5255,8.09
1072,2019/2/14,17:51,35-10.72N,140-31.99E,38,15.489,34.5171,8.1
1073,2019/2/14,17:52,35-10.95N,140-32.22E,37,15.405,34.5163,8.09
1074,2019/2/14,17:53,35-11.19N,140-32.43E,37,15.194,34.5158,8.08
1075,2019/2/14,17:54,35-11.42N,140-32.64E,36,15.039,34.5133,8.07
1076,2019/2/14,17:55,35-11.65N,140-32.86E,37,15.032,34.5126,8.08
1077,2019/2/14,17:56,35-11.88N,140-33.07E,36,14.99,34.511,8.07
1078,2019/2/14,17:57,35-12.12N,140-33.28E,35,14.901,34.5137,8.08
1079,2019/2/14,17:58,35-12.36N,140-33.48E,34,14.642,34.5155,8.07
1080,2019/2/14,17:59,35-12.60N,140-33.69E,34,14.67,34.5145,8.07
1081,2019/2/14,18:00,35-12.83N,140-33.89E,36,14.725,34.5052,8.07
1082,2019/2/14,18:01,35-13.07N,140-34.10E,35,14.762,34.4937,8.08
1083,2019/2/14,18:02,35-13.31N,140-34.31E,35,14.751,34.4875,8.07
1084,2019/2/14,18:03,35-13.54N,140-34.51E,35,14.723,34.4827,8.06
1085,2019/2/14,18:04,35-13.77N,140-34.71E,35,14.703,34.4808,8.05
1086,2019/2/14,18:05,35-14.00N,140-34.92E,35,14.679,34.4809,8.06
1087,2019/2/14,18:06,35-14.24N,140-35.12E,35,14.667,34.4833,8.05
1088,2019/2/14,18:07,35-14.47N,140-35.32E,35,14.659,34.4857,8.05
1089,2019/2/14,18:08,35-14.71N,140-35.52E,35,14.658,34.4872,8.06
1090,2019/2/14,18:09,35-14.95N,140-35.72E,34,14.62,34.4938,8.06
1091,2019/2/14,18:10,35-15.19N,140-35.92E,34,14.59,34.4993,8.06
1092,2019/2/14,18:11,35-15.42N,140-36.12E,34,14.564,34.5022,8.07
1093,2019/2/14,18:12,35-15.66N,140-36.32E,35,14.529,34.5043,8.07
1094,2019/2/14,18:13,35-15.89N,140-36.52E,35,14.439,34.5054,8.07
1095,2019/2/14,18:14,35-16.13N,140-36.72E,34,14.212,34.5074,8.07
1096,2019/2/14,18:15,35-16.37N,140-36.92E,34,14.184,34.5071,8.07
1097,2019/2/14,18:16,35-16.60N,140-37.11E,34,14.243,34.5021,8.07
1098,2019/2/14,18:17,35-16.83N,140-37.30E,33,14.301,34.4981,8.07
1099,2019/2/14,18:18,35-17.06N,140-37.49E,34,14.367,34.4954,8.07
1100,2019/2/14,18:19,35-17.29N,140-37.68E,34,14.412,34.4936,8.07
1101,2019/2/14,18:20,35-17.53N,140-37.88E,34,14.457,34.4924,8.07
1102,2019/2/14,18:21,35-17.76N,140-38.07E,34,14.478,34.4932,8.07
1103,2019/2/14,18:22,35-17.99N,140-38.26E,34,14.493,34.4931,8.08
1104,2019/2/14,18:23,35-18.22N,140-38.44E,33,14.482,34.4936,8.07